Regional Weather Roundup
Issued by NWS Memphis, TN

Home | Current Version | Previous Version | Text Only | Print | Product List | Glossary On
Versions: 1 2 3 4 5 6 7 8 9 10 11 12 13 14 15 16 17 18 19 20 21 22 23 24 25 26 27 28 29 30 31 32 33 34 35 36 37 38 39 40 41 42 43 44 45 46 47 48 49 50
000
ASUS44 KMEG 210810
RWRMEG
MEMPHIS CWA HOURLY WEATHER ROUNDUP
NATIONAL WEATHER SERVICE MEMPHIS TN
300 AM CDT TUE APR 21 2015

...WEST TENNESSEE...

CITY           SKY/WX    TMP DP  RH WIND       PRES   REMARKS
MEMPHIS INTL   CLEAR     50  36  58 CALM      29.97F
NWS MEMPHIS      N/A     44 N/A N/A MISG        N/A
JACKSON        CLEAR     45  39  79 SW3       29.95S
LEXINGTON      CLEAR     43  39  87 CALM      29.93S
SAVANNAH       CLEAR     43  32  65 CALM      29.96S
DYERSBURG      CLEAR     45  30  57 CALM      29.96S
UNION CITY     CLEAR     46  32  57 W5        29.92S
PARIS            N/A     39  37  93 CALM      29.93S


...EASTERN ARKANSAS...

CITY           SKY/WX    TMP DP  RH WIND       PRES   REMARKS
JONESBORO      CLEAR     47  37  68 SW5       29.96S
WEST MEMPHIS   CLEAR     46  44  93 CALM      29.97S
BATESVILLE     CLEAR     45  36  70 CALM      29.97S
NEWPORT        CLEAR     49  39  68 SW6       29.98S
WALNUT RIDGE   CLEAR     46  36  66 SW8       29.95S
BLYTHEVILLE    CLEAR     50  37  61 W6        29.95F
SEARCY         CLEAR     42  40  92 CALM      30.00F
STUTTGART      CLEAR     52  41  66 SW3       30.00S
PINE BLUFF     FAIR      51  38  60 W3        30.01S
MONTICELLO     CLEAR     47  42  83 CALM      30.01R


...NORTH MISSISSIPPI...

CITY           SKY/WX    TMP DP  RH WIND       PRES   REMARKS
TUPELO         CLEAR     51  42  71 NW5       29.97R
OXFORD         CLEAR     41  41 100 CALM      30.00S
OLIVE BRANCH   CLEAR     50  36  57 W3        29.98S
TUNICA         CLEAR     50  45  81 W5        30.00S
CLARKSDALE     CLEAR     50  45  81 CALM      30.00S
CORINTH        CLEAR     46  43  87 CALM      29.96R
GREENWOOD      CLEAR     48  45  89 CALM      29.99S
COLUMBUS       CLEAR     47  47  99 CALM      29.96S
STARKVILLE     FAIR      45  45 100 CALM      29.97S
GOLDEN TRIANGL CLEAR     48  45  87 CALM      29.95S


...SOUTHEAST MISSOURI...

CITY           SKY/WX    TMP DP  RH WIND       PRES   REMARKS
WEST PLAINS    CLEAR     42  30  62 SW5       29.93F
POPLAR BLUFF   CLEAR     46  33  60 SW6       29.92S
CAPE GIRARDEAU CLEAR     45  38  76 SW8       29.91R


...NORTHWEST ALABAMA...

CITY           SKY/WX    TMP DP  RH WIND       PRES   REMARKS
MUSCLE SHOALS  CLEAR     46  41  82 CALM      29.96S


...MIDDLE TENNESSEE...

CITY           SKY/WX    TMP DP  RH WIND       PRES   REMARKS
NASHVILLE      CLEAR     49  42  77 NW3       29.92S
CLARKSVILLE    CLEAR     45  43  93 S3        29.91F
COLUMBIA       CLEAR     46  32  57 CALM      29.91S


...WESTERN KENTUCKY...

CITY           SKY/WX    TMP DP  RH WIND       PRES   REMARKS
PADUCAH        CLEAR     47  36  65 SW6       29.90S
FORT CAMPBELL  CLEAR     46  40  82 SW3       29.91S


...CENTRAL ARKANSAS...

CITY           SKY/WX    TMP DP  RH WIND       PRES   REMARKS
LITTLE ROCK    CLEAR     47  41  80 SW5       30.00F


SKY/WX REPORTED AS FAIR MEANS FEW OR NO CLOUDS BELOW
12 THOUSAND FEET.



USA.gov is the U.S. government's official web portal to all federal, state and local government web resources and services.